Flag for Liechtenstein Weather past 2 weeks in Vaduz, Liechtenstein

Now
52 °F

Cool.


Feels Like: 52 °F
Forecast: 52 / 81 °F
Wind: No wind

Location: Vaduz

Current Time: Sep 3, 2014 at 7:35:29 AM

Latest Report: Sep 3, 2014 at 6:00 AM


Visibility: N/A

Pressure: 30.10 "Hg

Humidity: 94%

Dew point: 51 °F

Location of VaduzLocation

Historic Weather in Vaduz — Graph

°F

Vaduz temperature yesterday

Maximum temperature yesterday: 62 °F (at 5:00 PM)
Minimum temperature yesterday: 50 °F (at 5:00 AM)
Average temperature yesterday: 56 °F

Past Weeks' High & Low Weather Summary

 TemperatureHumidityPressure
High73 °F (Aug 28, 4:00 PM)98% (Aug 21, 7:00 AM)30.20 "Hg (Aug 21, 7:00 AM)
Low48 °F (Aug 25, 1:00 AM)46% (Aug 22, 4:00 PM)29.79 "Hg (Aug 26, 7:00 AM)
Average60 °F79%30.03 "Hg
* Reported Aug 19 6:00 AM — Sep 3 6:00 AM, Vaduz, Weather by CustomWeather, © 2014

Note: Actual official high and low records may vary slightly from our data, if they occured in-between our weather recording intervals... More about our weather records

Advertising

Vaduz weather history for previous 24 hours

 ConditionsComfort  
Time TempWeatherWind HumidityBarometerVisibility
6:00 AM
Sep 3
52 °FCool.No wind94%30.10 "HgN/A
5:00 AM51 °FOvercast.No wind97%30.10 "Hg9 mi
4:00 AM51 °FCool.No wind96%30.11 "HgN/A
3:00 AM53 °FCool.1 mph91%30.11 "HgN/A
2:00 AM54 °FOvercast.3 mph88%30.12 "Hg9 mi
1:00 AM56 °FCool.1 mph83%30.13 "HgN/A
12:00 AM55 °FCool.2 mph86%30.14 "HgN/A
11:00 PM
Sep 2
58 °FCool.No wind78%30.14 "HgN/A
10:00 PM58 °FCool.1 mph80%30.14 "HgN/A
9:00 PM58 °FCool.5 mph77%30.13 "HgN/A
8:00 PM57 °FCool.No wind88%30.12 "HgN/A
7:00 PM60 °FCool.2 mph68%30.11 "HgN/A
6:00 PM61 °FCool.6 mph64%30.10 "HgN/A
5:00 PM62 °FCool.6 mph66%30.09 "HgN/A
4:00 PM62 °FCool.5 mph69%30.11 "HgN/A
3:00 PM61 °FCool.7 mph67%30.11 "HgN/A
2:00 PM61 °FOvercast.7 mph70%30.12 "Hg4 mi
1:00 PM60 °FCool.6 mph71%30.12 "HgN/A
12:00 PM60 °FCool.5 mph73%30.12 "HgN/A
11:00 AM57 °FFog.3 mph83%30.15 "Hg4 mi
10:00 AM54 °FCool.2 mph88%30.16 "HgN/A
9:00 AM52 °FCool.No wind94%30.16 "HgN/A
8:00 AM51 °FFog.No wind96%30.17 "Hg3 mi
7:00 AM50 °FCool.No wind97%30.16 "HgN/A
Weather by CustomWeather, © 2014

See weather overviewHow to use our weather pages